TimePDT,TemperatureF,Dew PointF,Humidity,Sea Level PressureIn,VisibilityMPH,Wind Direction,Wind SpeedMPH,Gust SpeedMPH,PrecipitationIn,Events,Conditions,WindDirDegrees,DateUTC
12:43 AM,53.6,51.8,94,29.90,3.0,Calm,Calm,-,N/A,,Overcast,0,2012-09-11 07:43:00
12:53 AM,53.1,52.0,96,29.89,3.0,North,3.5,-,N/A,,Overcast,10,2012-09-11 07:53:00
1:53 AM,54.0,52.0,93,29.89,3.0,Calm,Calm,-,N/A,,Overcast,0,2012-09-11 08:53:00
2:53 AM,54.0,52.0,93,29.89,6.0,Calm,Calm,-,N/A,,Overcast,0,2012-09-11 09:53:00
3:53 AM,54.0,52.0,93,29.89,9.0,SSE,6.9,-,N/A,,Overcast,150,2012-09-11 10:53:00
4:53 AM,53.1,51.1,93,29.90,10.0,SE,4.6,-,N/A,,Overcast,130,2012-09-11 11:53:00
5:53 AM,53.1,51.1,93,29.91,7.0,Variable,3.5,-,N/A,,Overcast,0,2012-09-11 12:53:00
6:53 AM,53.1,51.1,93,29.92,7.0,Calm,Calm,-,N/A,,Overcast,0,2012-09-11 13:53:00
7:53 AM,53.1,52.0,96,29.94,6.0,ESE,3.5,-,N/A,,Overcast,120,2012-09-11 14:53:00
8:53 AM,54.0,52.0,93,29.95,6.0,SE,3.5,-,N/A,,Overcast,140,2012-09-11 15:53:00
9:53 AM,55.0,52.0,89,29.96,10.0,ESE,3.5,-,N/A,,Overcast,110,2012-09-11 16:53:00
10:41 AM,57.2,51.8,82,29.97,10.0,Variable,3.5,-,N/A,,Overcast,0,2012-09-11 17:41:00
10:53 AM,57.0,52.0,83,29.97,10.0,Calm,Calm,-,N/A,,Overcast,0,2012-09-11 17:53:00
11:39 AM,60.8,51.8,72,29.96,10.0,Calm,Calm,-,N/A,,Mostly Cloudy,0,2012-09-11 18:39:00
11:53 AM,63.0,52.0,67,29.96,10.0,Calm,Calm,-,N/A,,Scattered Clouds,0,2012-09-11 18:53:00
12:53 PM,66.0,53.1,63,29.95,10.0,South,8.1,-,N/A,,Clear,190,2012-09-11 19:53:00
1:53 PM,66.0,52.0,60,29.95,10.0,South,9.2,-,N/A,,Clear,190,2012-09-11 20:53:00
2:53 PM,64.9,52.0,63,29.95,10.0,SSW,10.4,-,N/A,,Clear,200,2012-09-11 21:53:00
3:53 PM,64.0,52.0,65,29.95,10.0,SW,8.1,-,N/A,,Clear,220,2012-09-11 22:53:00
4:53 PM,62.1,52.0,70,29.94,10.0,SW,8.1,-,N/A,,Clear,230,2012-09-11 23:53:00
5:53 PM,59.0,52.0,78,29.94,10.0,SW,5.8,-,N/A,,Scattered Clouds,220,2012-09-12 00:53:00
6:22 PM,57.2,51.8,82,29.94,9.0,Variable,5.8,-,N/A,,Scattered Clouds,0,2012-09-12 01:22:00
6:53 PM,57.0,52.0,83,29.95,9.0,SSW,4.6,-,N/A,,Overcast,210,2012-09-12 01:53:00
11:53 PM,54.0,52.0,93,29.99,4.0,Calm,Calm,-,N/A,,Overcast,0,2012-09-12 06:53:00